This is the latest recevied weather packets stored in our database for station/object WB3EGK. If no packets are shown the sender has not sent any weather packets the latest 10 day(s).
| Time | Temp. | Humidity | Pressure | Rain* | Wind** | Luminosity | Snow |
|---|---|---|---|---|---|---|---|
| 1777726160 | 0.56° C | 1% | 1013.7 hPa | 0 mm | - | 41 W/m² | - |
| 1777725856 | 0.56° C | 1% | 1013.6 hPa | 0 mm | - | 46 W/m² | - |
| 1777725554 | 0.56° C | 1% | 1013.5 hPa | 0 mm | - | 45 W/m² | - |
| 1777725251 | 1.11° C | 1% | 1013.5 hPa | 0 mm | - | 48 W/m² | - |
| 1777724948 | 1.11° C | 1% | 1013.3 hPa | 0 mm | - | 43 W/m² | - |
| 1777724644 | 0.56° C | 1% | 1013.3 hPa | 0 mm | - | 49 W/m² | - |
| 1777724343 | 0.56° C | 1% | 1013.4 hPa | 0 mm | - | 48 W/m² | - |
| 1777724039 | 0.56° C | 1% | 1013.4 hPa | 1.27 mm | - | 52 W/m² | - |
| 1777723737 | 0.56° C | 1% | 1013.5 hPa | 1.27 mm | - | 52 W/m² | - |
| 1777723433 | 0.56° C | 1% | 1013.5 hPa | 0 mm | - | 43 W/m² | - |
| 1777723130 | 0.56° C | 1% | 1013.6 hPa | 0 mm | - | 35 W/m² | - |
| 1777722827 | 0.56° C | 1% | 1013.5 hPa | 0 mm | - | 24 W/m² | - |
| 1777722518 | 0.56° C | 1% | 1013.6 hPa | 0 mm | - | 19 W/m² | - |
| 1777722215 | 1.11° C | 1% | 1013.7 hPa | 0 mm | - | 18 W/m² | - |
| 1777721912 | 0.56° C | 1% | 1013.8 hPa | 0 mm | - | 15 W/m² | - |
| 1777721609 | 1.11° C | 1% | 1013.6 hPa | 0 mm | - | 11 W/m² | - |
| 1777721308 | 1.11° C | 1% | 1013.6 hPa | 0 mm | - | 10 W/m² | - |
| 1777721005 | 1.11° C | 1% | 1013.5 hPa | 0 mm | - | 8 W/m² | - |
| 1777720702 | 1.11° C | 1% | 1013.5 hPa | 0 mm | - | 7 W/m² | - |
| 1777720400 | 1.11° C | 1% | 1013.6 hPa | 0 mm | - | 6 W/m² | - |
| 1777720097 | 1.11° C | 1% | 1013.4 hPa | 0 mm | - | 9 W/m² | - |
| 1777719795 | 1.67° C | 1% | 1013.5 hPa | 0 mm | - | 7 W/m² | - |
| 1777719492 | 1.67° C | 1% | 1013.3 hPa | 0 mm | - | 6 W/m² | - |
| 1777719189 | 1.11° C | 1% | 1013.3 hPa | 0 mm | - | 6 W/m² | - |
| 1777718887 | 1.11° C | 1% | 1013 hPa | 0 mm | - | 5 W/m² | - |
* Rain latest hour (hover to see other rain measurements)
** Current wind speed in m/s (hover to see current wind gust speed)